[[{"header":{"parameterUnit":"m.s-1","parameterCategory":1,"la1":30.2991,"la2":30.254,"lo1":-89.0895,"lo2":-89.0444,"dy":0.0017,"dx":0.0017,"nx":28,"ny":28,"refTime":"2024-05-10T21:00:00:Z","depth":0,"parameterNumber":2,"parameterNumberName":"U-component_of_WINDS"},"data":[0,0,0,0,0,0,0,0,0,0,0,0,0,0,0,0,0,0,0,0,0,0,0,0,0,0,0,0,0,0,0,0,0,0,0,0,0,0,0,0,0,0,0,0,0,0,0,0,0,0,0,0,0,0,0,0,0,0,0.7665,0.7666,0,0.7754,0.7755,0.7756,0.7787,0.7786,0.7786,0.7786,0.7877,0.788,0.7883,0,0,0,0,0,0,0,0,0,0,0,0,0,0.7524,0.7527,0.7665,0.7666,0.7667,0.7753,0.7755,0.7756,0.7787,0.7786,0.7786,0.7785,0.7876,0.7879,0.7883,0,0,0,0,0,0,0,0,0,0,0,0,0,0.7596,0.7527,0.7665,0.7693,0.7696,0.7753,0.7755,0.7756,0.7787,0.7786,0.7786,0.7785,0.7875,0.7879,0.7883,0.7919,0,0,0.7896,0.7898,0,0,0,0,0,0,0,0,0.7592,0.7601,0.7687,0.7691,0.7695,0.7759,0.7739,0.7811,0.7787,0.7752,0.7786,0.7785,0.7838,0.7845,0.7863,0.7923,0.7927,0.7896,0.7899,0.79,0.7902,0,0,0,0,0,0,0,0.7587,0.7598,0.77,0.7689,0.7693,0.7702,0.7711,0.7753,0.7797,0.7755,0.7758,0.7768,0.784,0.7859,0.7865,0.7928,0.7896,0.79,0.7902,0.7904,0.8025,0.8026,0,0,0,0,0,0,0.7577,0.7593,0.7697,0.7703,0.7641,0.7705,0.7716,0.7739,0.7797,0.7805,0.7768,0.7769,0.7852,0.7861,0.7869,0.7916,0.79,0.7904,0.7907,0.8025,0.8025,0.8026,0,0,0,0,0,0,0.7574,0.7586,0.7694,0.7649,0.7663,0.7708,0.7733,0.7741,0.776,0.7806,0.7815,0.7779,0.7852,0.7863,0.7907,0.792,0.7906,0.791,0.8024,0.8025,0.8026,0.801,0,0,0,0,0,0,0.757,0.7585,0.7598,0.7649,0.7665,0.7729,0.7734,0.7743,0.7767,0.7768,0.7819,0.7827,0.7853,0.79,0.7911,0.7925,0.7913,0.8023,0.8024,0.8026,0.801,0.801,0.8011,0,0,0,0,0,0.7565,0.759,0.7599,0.7611,0.7683,0.773,0.7739,0.7768,0.7767,0.7782,0.7812,0.7825,0.7917,0.7905,0.7917,0.7932,0.8022,0.8024,0.8025,0.8009,0.801,0.8011,0,0,0,0,0,0,0.7539,0.7597,0.7607,0.7649,0.7684,0.7735,0.7754,0.7768,0.7804,0.7805,0.7839,0.7851,0.7892,0.7917,0.7902,0.7971,0.797,0.7974,0.7954,0.7955,0.7956,0.7949,0.7917,0,0,0,0,0,0.7538,0.7571,0.762,0.7652,0.7669,0.7709,0.773,0.775,0.7788,0.7803,0.7836,0.7873,0.791,0.7934,0.7971,0.8013,0.8026,0.803,0.8031,0.8031,0.8035,0.8061,0.8064,0.8032,0.8032,0.8032,0,0,0.7536,0.7572,0.7591,0.7648,0.7678,0.7712,0.7721,0.7756,0.7782,0.7808,0.7852,0.7878,0.7922,0.7966,0.7987,0.7987,0.8047,0.8034,0.8034,0.8037,0.8063,0.8066,0.8069,0.8033,0.8033,0.8033,0,0,0.7552,0.7581,0.7613,0.7643,0.7688,0.7714,0.7721,0.7771,0.7789,0.7834,0.7854,0.7886,0.7949,0.798,0.8004,0.8033,0.8047,0.8044,0.8049,0.8074,0.8077,0.8079,0.8091,0.8095,0.8048,0.8048,0.8048,0,0.7544,0.7596,0.7627,0.7662,0.7687,0.7713,0.7746,0.7773,0.7828,0.7845,0.7845,0.7926,0.7957,0.801,0.8017,0.8035,0.8046,0.8039,0.8074,0.8077,0.8079,0.8091,0.8096,0.8047,0.8047,0.8047,0.8047,0,0.7586,0.7622,0.7641,0.7694,0.7722,0.7756,0.7793,0.7817,0.7835,0.7861,0.7908,0.7946,0.7992,0.8006,0.8023,0.8062,0.8061,0.8067,0.8067,0.8082,0.8093,0.8098,0.8046,0.8046,0.8047,0.8047,0,0,0.7585,0.7656,0.7663,0.7689,0.7741,0.777,0.7806,0.7851,0.7872,0.791,0.7942,0.7996,0.8002,0.8029,0.805,0.8073,0.8096,0.8077,0.8078,0.808,0.8143,0.8139,0.8144,0.8106,0.8107,0.8107,0.814,0,0.7608,0.7673,0.7702,0.7754,0.7789,0.7815,0.7846,0.7883,0.7909,0.7943,0.7973,0.8011,0.8016,0.8033,0.8056,0.8088,0.8109,0.8086,0.8137,0.8138,0.8126,0.815,0.8145,0.8173,0.8145,0.8146,0.8146,0,0.7643,0.7681,0.7736,0.7787,0.7803,0.7831,0.7876,0.7908,0.795,0.7968,0.8,0.8021,0.8061,0.8058,0.8114,0.8098,0.812,0.814,0.8142,0.8148,0.8143,0.8157,0.8183,0.8188,0.8153,0.8153,0.8152,0,0.7639,0.7704,0.7746,0.7767,0.7827,0.7846,0.7872,0.7914,0.7941,0.798,0.7998,0.8042,0.8066,0.81,0.8133,0.8127,0.8187,0.8186,0.8204,0.8203,0.8215,0.8214,0.8246,0.8228,0.8228,0.8228,0.8228,0,0.7661,0.7694,0.7746,0.7771,0.781,0.7845,0.7883,0.7911,0.7948,0.7981,0.8006,0.8037,0.8078,0.8114,0.814,0.8184,0.8194,0.8211,0.8217,0.8209,0.8207,0.8224,0.8223,0.8229,0.8229,0.8229,0.8229,0,0.7663,0.7698,0.7746,0.78,0.7814,0.7841,0.7887,0.7914,0.7942,0.7984,0.7996,0.804,0.8084,0.8121,0.8178,0.8195,0.8242,0.8249,0.8227,0.8231,0.8247,0.8246,0.8292,0.8301,0.8276,0.8276,0.8277,0,0.7675,0.7701,0.7758,0.7782,0.7808,0.7846,0.7873,0.7909,0.7937,0.7989,0.801,0.8056,0.8095,0.8164,0.8202,0.8247,0.8256,0.8269,0.8263,0.8254,0.8258,0.8256,0.826,0.827,0.827,0.827,0.827,0,0.7693,0.771,0.7748,0.7793,0.7826,0.7863,0.7901,0.7919,0.7962,0.7992,0.8038,0.8068,0.8128,0.8173,0.8223,0.825,0.8268,0.8272,0.8279,0.827,0.8257,0.8266,0.823,0.827,0.827,0.827,0.827,0.827,0.7701,0.7727,0.7772,0.7814,0.7847,0.7882,0.7911,0.7944,0.7982,0.8034,0.8053,0.81,0.8145,0.8213,0.8241,0.8279,0.8281,0.829,0.8293,0.8295,0.8294,0.8251,0.8288,0.8288,0.8288,0.8288,0.8288,0,0.7722,0.7752,0.7791,0.7844,0.7878,0.7892,0.7936,0.7963,0.8005,0.8045,0.8083,0.8136,0.8182,0.8224,0.8272,0.8294,0.8304,0.8306,0.8305,0.8311,0.8289,0.8279,0.8298,0.8298,0.8298,0.8298,0.8298,0.8298,0.7736,0.7781,0.7804,0.7866,0.7896,0.7943,0.7967,0.8,0.8033,0.8092,0.813,0.8157,0.8199,0.8251,0.8293,0.8305,0.8322,0.8322,0.8335,0.8314,0.8313,0.8311,0.8302,0.8325,0.8325,0.8355,0.8355,0.8355]},{"header":{"parameterUnit":"m.s-1","parameterCategory":1,"la1":30.2991,"la2":30.254,"lo1":-89.0895,"lo2":-89.0444,"dy":0.0017,"dx":0.0017,"nx":28,"ny":28,"refTime":"2024-05-10T21:00:00:Z","depth":0,"parameterNumber":3,"parameterNumberName":"V-component_of_WINDS"},"data":[0,0,0,0,0,0,0,0,0,0,0,0,0,0,0,0,0,0,0,0,0,0,0,0,0,0,0,0,0,0,0,0,0,0,0,0,0,0,0,0,0,0,0,0,0,0,0,0,0,0,0,0,0,0,0,0,0,0,-3.6301,-3.6301,0,-3.6226,-3.6225,-3.6224,-3.6215,-3.6216,-3.6217,-3.6218,-3.6131,-3.6129,-3.6126,0,0,0,0,0,0,0,0,0,0,0,0,0,-3.6431,-3.6428,-3.6302,-3.6301,-3.63,-3.6226,-3.6225,-3.6224,-3.6215,-3.6216,-3.6217,-3.6218,-3.6132,-3.6129,-3.6125,0,0,0,0,0,0,0,0,0,0,0,0,0,-3.6366,-3.6428,-3.6302,-3.6287,-3.6285,-3.6226,-3.6225,-3.6223,-3.6215,-3.6216,-3.6218,-3.6219,-3.6134,-3.6129,-3.6125,-3.6073,0,0,-3.6111,-3.6109,0,0,0,0,0,0,0,0,-3.637,-3.6362,-3.629,-3.6288,-3.6285,-3.6232,-3.6239,-3.6173,-3.6215,-3.6241,-3.6218,-3.6219,-3.6163,-3.6156,-3.6139,-3.6069,-3.6065,-3.611,-3.6108,-3.6106,-3.6105,0,0,0,0,0,0,0,-3.6375,-3.6365,-3.6271,-3.6289,-3.6286,-3.6281,-3.6273,-3.6226,-3.6196,-3.6239,-3.6238,-3.623,-3.6162,-3.6144,-3.6137,-3.6064,-3.6111,-3.6107,-3.6104,-3.6102,-3.5945,-3.5944,0,0,0,0,0,0,-3.6383,-3.6369,-3.6274,-3.6269,-3.6332,-3.6278,-3.6269,-3.6247,-3.6197,-3.619,-3.6229,-3.623,-3.6151,-3.6142,-3.6134,-3.6068,-3.6106,-3.6102,-3.6099,-3.5947,-3.5945,-3.5943,0,0,0,0,0,0,-3.6386,-3.6375,-3.6277,-3.6319,-3.6306,-3.6275,-3.625,-3.6245,-3.6227,-3.6189,-3.6183,-3.6216,-3.6151,-3.614,-3.6088,-3.6065,-3.61,-3.6095,-3.5948,-3.5946,-3.5944,-3.5937,0,0,0,0,0,0,-3.639,-3.6376,-3.6358,-3.6318,-3.6304,-3.6235,-3.6249,-3.6243,-3.622,-3.622,-3.6176,-3.6169,-3.6152,-3.6095,-3.6084,-3.6059,-3.6092,-3.595,-3.5947,-3.5945,-3.5939,-3.5935,-3.5931,0,0,0,0,0,-3.6394,-3.6357,-3.6357,-3.6345,-3.6281,-3.6234,-3.6225,-3.6208,-3.6218,-3.6198,-3.6174,-3.6171,-3.6071,-3.609,-3.6077,-3.6051,-3.5952,-3.5948,-3.5945,-3.5941,-3.5936,-3.5931,0,0,0,0,0,0,-3.6391,-3.6352,-3.6351,-3.6301,-3.6271,-3.6232,-3.6206,-3.6203,-3.6167,-3.6169,-3.6147,-3.6136,-3.6085,-3.6063,-3.6086,-3.5997,-3.6012,-3.6006,-3.6013,-3.6007,-3.6004,-3.6008,-3.6088,0,0,0,0,0,-3.6385,-3.6353,-3.6319,-3.6278,-3.6264,-3.6238,-3.6216,-3.6206,-3.6173,-3.616,-3.6132,-3.6097,-3.6058,-3.6032,-3.5994,-3.5937,-3.5925,-3.5913,-3.5909,-3.5906,-3.5899,-3.5865,-3.5858,-3.5933,-3.5933,-3.5933,0,0,-3.6371,-3.6346,-3.6326,-3.6277,-3.6252,-3.6216,-3.6227,-3.6189,-3.616,-3.6153,-3.6102,-3.6081,-3.6041,-3.5986,-3.596,-3.5966,-3.5877,-3.5902,-3.59,-3.5895,-3.5861,-3.5854,-3.5848,-3.5931,-3.5931,-3.5931,0,0,-3.6327,-3.6306,-3.6268,-3.6245,-3.6209,-3.6192,-3.6184,-3.6146,-3.6132,-3.6081,-3.6074,-3.604,-3.5973,-3.5944,-3.5921,-3.5867,-3.5861,-3.5855,-3.5833,-3.58,-3.5794,-3.5788,-3.5765,-3.5758,-3.585,-3.585,-3.585,0,-3.6313,-3.6261,-3.6249,-3.6211,-3.6188,-3.6183,-3.6143,-3.6119,-3.6072,-3.6054,-3.6063,-3.5979,-3.5952,-3.5889,-3.5876,-3.5858,-3.5844,-3.5858,-3.5796,-3.5791,-3.5785,-3.5763,-3.5755,-3.5849,-3.5849,-3.5849,-3.5849,0,-3.6244,-3.6208,-3.6182,-3.6139,-3.6113,-3.6074,-3.6053,-3.6029,-3.6021,-3.6003,-3.595,-3.5918,-3.5872,-3.5857,-3.5849,-3.5792,-3.5797,-3.5801,-3.5814,-3.5778,-3.5756,-3.5748,-3.5848,-3.5848,-3.5849,-3.5849,0,0,-3.6192,-3.6145,-3.6135,-3.6114,-3.6075,-3.6046,-3.6006,-3.5964,-3.5942,-3.591,-3.5873,-3.5818,-3.5821,-3.5795,-3.5783,-3.5755,-3.571,-3.5762,-3.5761,-3.575,-3.5642,-3.5635,-3.5626,-3.5708,-3.5706,-3.5705,-3.5644,0,-3.614,-3.6072,-3.606,-3.5998,-3.5963,-3.5959,-3.5924,-3.5894,-3.5876,-3.5842,-3.5821,-3.5781,-3.5791,-3.5774,-3.5747,-3.5721,-3.5687,-3.5726,-3.5669,-3.5667,-3.5675,-3.5616,-3.5609,-3.5553,-3.5636,-3.5634,-3.5633,0,-3.607,-3.6039,-3.5974,-3.5939,-3.5924,-3.5893,-3.5853,-3.5822,-3.5787,-3.5776,-3.5748,-3.5739,-3.5694,-3.5713,-3.5649,-3.5676,-3.5652,-3.5636,-3.5634,-3.5624,-3.5645,-3.56,-3.5535,-3.5524,-3.5621,-3.5622,-3.5623,0,-3.6034,-3.5976,-3.5929,-3.5913,-3.5872,-3.5849,-3.5831,-3.5798,-3.5774,-3.5738,-3.5721,-3.5681,-3.5657,-3.5624,-3.5604,-3.562,-3.554,-3.5558,-3.5525,-3.5526,-3.5505,-3.5505,-3.543,-3.5497,-3.5497,-3.5497,-3.5498,0,-3.5975,-3.5934,-3.5912,-3.5883,-3.5837,-3.5824,-3.5778,-3.5759,-3.573,-3.5695,-3.5689,-3.5656,-3.5633,-3.5596,-3.558,-3.5527,-3.5517,-3.5504,-3.5499,-3.5502,-3.5503,-3.5482,-3.5484,-3.5495,-3.5496,-3.5496,-3.5496,0,-3.5924,-3.5909,-3.5857,-3.5824,-3.5815,-3.5782,-3.5752,-3.5721,-3.5705,-3.5661,-3.5649,-3.5622,-3.5577,-3.5555,-3.5499,-3.5488,-3.5427,-3.5427,-3.5439,-3.5436,-3.5404,-3.5405,-3.5309,-3.5294,-3.5375,-3.5374,-3.5374,0,-3.5886,-3.5855,-3.5819,-3.5797,-3.5778,-3.5742,-3.5718,-3.5703,-3.5677,-3.5637,-3.561,-3.5567,-3.553,-3.5459,-3.5432,-3.5388,-3.5384,-3.5354,-3.5377,-3.538,-3.5378,-3.5379,-3.5374,-3.5348,-3.5347,-3.5346,-3.5346,0,-3.5817,-3.5811,-3.5778,-3.5741,-3.5713,-3.5683,-3.5653,-3.5634,-3.5615,-3.5585,-3.5542,-3.5514,-3.5458,-3.5413,-3.5368,-3.5345,-3.534,-3.534,-3.5329,-3.5329,-3.5335,-3.5327,-3.5423,-3.534,-3.5341,-3.5341,-3.5342,-3.5342,-3.5768,-3.574,-3.571,-3.5672,-3.565,-3.5622,-3.5592,-3.5573,-3.5537,-3.5492,-3.5486,-3.5438,-3.5403,-3.5343,-3.5319,-3.5279,-3.5285,-3.5271,-3.5266,-3.5262,-3.5258,-3.5346,-3.5271,-3.5271,-3.5271,-3.5272,-3.5272,0,-3.5695,-3.5677,-3.5643,-3.5602,-3.5572,-3.5576,-3.5543,-3.5516,-3.5476,-3.5445,-3.5411,-3.5359,-3.5315,-3.5286,-3.5241,-3.5215,-3.5211,-3.5203,-3.5202,-3.5196,-3.5257,-3.5269,-3.5206,-3.5206,-3.5206,-3.5206,-3.5206,-3.5206,-3.5653,-3.5605,-3.5596,-3.5535,-3.5516,-3.5471,-3.5452,-3.5425,-3.5401,-3.5344,-3.5309,-3.5292,-3.5261,-3.5214,-3.5173,-3.5166,-3.5147,-3.5138,-3.5129,-3.5186,-3.5192,-3.5198,-3.5209,-3.5135,-3.5135,-3.5071,-3.5071,-3.507]}]]